Temperature
29 30 30 30 29 29 29 29 29 30 30 30 29 28 27 26 25 24 23 23 22 22 21 20 20 19 19 19 19 19 19 18 18 18 18 18 17 17 17 17 16 16 16 16
28 29 29 29 29 29 29 29 29 30 29 29 28 26 26 25 24 24 23 22 22 21 20 20 19 19 19 19 19 19 18 18 18 17 17 17 17 17 17 16 16 16 16 15
28 29 28 28 29 29 29 29 29 29 29 28 27 26 25 25 24 24 23 22 21 21 20 20 19 19 19 19 19 18 18 18 17 17 17 17 17 16 16 16 16 16 15 15
28 27 26 28 28 28 28 28 28 28 28 27 26 25 24 24 24 23 22 22 21 21 20 19 19 19 19 19 18 18 18 17 17 17 17 17 16 16 16 16 15 15 15 15
27 27 27 27 27 28 27 27 27 27 26 26 25 24 24 23 22 22 21 21 20 20 20 19 19 18 18 18 18 18 17 17 17 17 17 16 16 16 16 15 15 15 15 15
26 26 26 27 27 26 27 26 26 26 25 25 25 26 25 21 21 21 20 20 19 19 19 19 18 18 18 18 18 17 17 17 17 16 16 16 16 16 16 15 15 15 15 15
26 26 27 26 25 26 26 25 24 24 24 24 24 24 22 20 20 20 19 19 19 19 18 18 18 17 17 17 17 17 17 16 16 16 16 16 16 16 15 15 15 14 14 14
25 25 26 25 25 25 24 23 23 23 23 23 22 21 20 20 19 19 19 18 18 18 18 17 17 17 17 17 17 16 16 16 16 16 16 16 15 15 15 15 14 14 14 14
25 25 23 22 23 22 22 22 22 22 22 21 21 20 20 19 19 18 18 17 17 17 17 17 17 16 16 16 16 16 16 16 16 15 15 15 15 15 14 14 14 14 14 14
23 23 22 22 21 21 21 21 21 21 21 20 20 20 19 19 18 18 17 17 17 16 16 16 16 16 16 16 16 15 15 15 15 15 15 15 14 14 14 14 14 14 14 14
22 22 21 21 20 20 20 20 20 20 20 20 19 19 18 18 17 17 17 16 16 16 15 15 15 15 15 15 15 15 15 14 14 14 14 14 14 14 14 14 14 14 13 13
22 21 21 20 19 19 19 19 19 19 19 19 19 18 18 17 16 16 16 16 15 15 15 15 15 14 14 15 14 14 14 14 14 14 14 14 14 14 14 13 13 13 13 13
20 19 19 18 18 18 18 18 18 18 18 18 17 17 17 16 16 15 15 15 15 15 14 14 14 14 14 14 14 13 13 13 13 14 14 14 13 13 13 13 13 13 13 13
18 18 18 18 18 17 17 17 17 17 17 17 16 16 16 16 15 15 15 14 14 14 14 14 14 14 13 14 13 13 13 13 13 13 13 13 13 13 13 13 13 13 13 13
17 17 17 17 17 17 17 17 17 17 16 16 16 15 15 15 14 14 14 14 14 14 14 13 13 13 13 13 13 13 13 13 13 13 13 13 13 13 13 13 13 13 12 13
17 17 16 16 16 16 16 16 16 16 16 15 15 14 14 14 14 13 13 13 13 13 13 13 13 13 13 13 13 13 13 12 12 12 12 12 12 13 13 13 12 12 12 12
16 16 16 16 16 16 16 16 15 15 15 14 14 14 14 13 13 13 13 13 13 13 13 13 12 12 12 12 12 12 12 12 12 12 12 12 12 12 12 12 12 12 12 12
15 15 15 15 15 15 15 15 15 14 14 14 13 13 13 13 13 13 12 12 12 12 12 12 12 12 12 12 12 12 12 12 12 12 12 12 12 12 12 12 12 12 12 12
15 15 14 14 14 14 14 14 14 14 13 13 13 13 12 12 12 12 12 12 12 12 12 12 12 12 12 12 12 12 12 12 12 12 12 12 12 12 12 12 12 12 12 12
14 14 14 14 14 14 13 13 13 13 13 13 12 12 12 12 12 12 12 11 12 11 11 11 11 11 11 11 12 12 12 12 12 12 12 12 12 12 12 12 11 11 11 11
14 13 13 13 13 13 13 13 13 12 12 12 12 12 12 12 11 11 11 12 11 11 11 11 11 11 11 11 11 11 11 11 11 11 11 11 11 11 11 11 11 11 11 11
13 13 13 13 13 13 13 12 12 12 12 12 11 11 11 11 11 11 11 11 11 11 11 11 11 11 11 11 11 11 11 11 11 11 11 11 11 11 11 11 10 11 11 11
12 12 12 12 12 12 12 12 12 12 11 11 11 11 11 11 11 11 11 11 11 11 11 11 11 11 11 11 11 11 11 11 10 10 10 10 10 10 10 10 10 10 10 10
12 12 12 12 12 12 12 12 12 11 11 11 11 11 11 11 11 11 11 11 11 10 10 11 11 11 10 10 10 10 10 10 10 10 10 10 10 10 10 10 10 10 10 9
11 11 11 11 11 12 12 11 11 11 11 11 11 11 11 11 11 11 11 11 10 10 10 10 10 10 10 10 10 10 10 10 10 10 9 9 9 9 9 9 9 9 9 9
11 11 11 11 11 11 11 11 11 11 11 11 11 11 11 11 10 10 10 10 10 10 10 10 10 10 10 10 10 10 10 9 9 9 9 9 9 9 9 9 9 9 9 9
11 11 11 11 11 11 11 11 11 11 11 10 10 10 10 10 10 10 10 10 10 10 10 10 10 10 10 10 10 9 9 9 9 9 9 9 8 8 8 8 8 8 8 8
Wind_Speed
10 7 7 10 11 12 13 12 11 9 8 4 1 0 2 4 5 5 5 6 6 6 6 6 6 6 6 6 6 5 5 5 5 5 5 5 4 4 4 4 4 4 3 4
11 10 9 10 11 12 12 12 11 9 6 1 1 2 3 4 4 4 4 5 5 5 6 6 6 6 6 5 5 5 5 5 4 4 4 5 5 5 4 4 3 3 4 3
10 9 10 12 10 10 10 8 9 9 4 2 2 2 2 3 3 3 3 4 4 4 4 5 5 6 6 5 5 5 5 4 4 4 4 4 5 4 4 4 4 4 4 4
9 8 12 5 3 6 7 5 5 4 2 2 2 2 2 2 2 2 2 2 2 3 3 4 4 4 4 5 5 4 4 4 4 4 4 4 4 4 4 4 4 4 5 5
8 11 9 7 5 6 6 4 3 3 3 2 3 3 3 3 2 2 2 2 2 2 2 3 3 4 4 4 5 5 4 4 4 4 4 4 5 5 4 4 4 4 5 5
9 11 11 5 4 3 5 6 2 3 3 3 4 4 2 2 2 2 2 2 2 2 2 3 2 3 3 4 4 4 5 5 4 4 5 5 5 5 4 4 4 5 4 5
12 11 7 1 2 5 8 3 3 2 2 2 2 1 2 3 2 2 3 3 2 2 2 2 2 2 3 3 4 4 4 4 4 4 5 5 5 4 4 4 4 4 5 5
10 11 7 2 3 4 1 2 2 2 1 1 1 2 3 3 3 2 2 2 2 2 1 2 2 3 3 3 3 3 4 4 4 4 5 4 4 4 4 4 5 5 5 5
5 3 3 2 1 1 0 2 2 2 1 2 2 2 3 3 2 2 2 1 1 1 1 1 1 2 3 2 2 3 4 4 4 4 4 4 4 5 5 5 5 4 4 4
3 2 1 1 1 1 1 0 1 1 1 2 2 2 2 2 1 1 1 1 0 1 1 1 1 2 3 2 2 3 4 4 4 4 4 4 4 4 4 4 5 4 4 4
4 2 1 1 1 1 1 1 1 1 1 1 1 1 1 1 1 1 0 0 0 1 1 1 1 1 1 2 2 3 3 3 4 4 3 3 3 3 4 3 3 4 4 4
4 2 2 1 1 2 1 1 1 0 1 1 1 1 0 0 1 0 0 0 1 0 0 0 1 1 1 2 2 3 3 3 3 3 3 3 3 3 1 3 2 3 4 5
2 1 1 1 1 1 1 1 1 1 1 1 1 1 0 0 0 0 0 0 1 1 0 0 1 2 2 2 3 4 4 4 4 4 3 4 4 4 3 3 4 4 4 5
1 1 1 1 1 1 1 1 1 1 1 1 1 1 0 0 0 0 0 0 1 0 0 1 2 2 3 2 3 4 4 4 4 4 5 5 5 5 5 5 4 3 4 5
2 2 1 1 1 1 1 1 1 1 1 1 1 1 0 0 0 0 0 0 0 1 1 2 2 3 3 3 3 4 4 4 3 4 5 5 5 5 5 5 5 5 4 4
2 2 1 1 1 0 0 1 1 1 1 1 1 1 1 0 0 0 1 1 2 2 2 2 3 3 3 3 4 4 4 3 4 4 4 4 4 4 4 4 5 5 5 4
2 2 1 0 1 1 1 1 1 1 1 1 1 1 0 0 0 1 1 2 2 2 3 3 3 3 3 4 4 4 4 4 5 5 4 4 4 4 4 5 4 5 5 3
2 1 1 1 1 2 2 1 1 1 1 1 1 1 1 1 1 1 2 2 2 3 3 3 3 3 4 4 4 4 4 4 4 4 4 4 4 4 4 4 5 5 5 4
2 1 1 0 0 1 1 1 2 1 1 1 2 2 2 2 1 2 2 2 3 3 3 3 3 4 4 4 4 4 5 5 4 4 4 4 5 4 4 4 5 5 5 4
2 1 0 0 1 1 1 1 2 2 2 2 2 2 2 2 2 2 2 3 3 3 3 3 4 4 5 4 4 5 5 5 5 4 4 4 4 4 4 4 5 5 4 4
1 1 0 1 1 2 2 2 2 2 2 3 3 3 3 3 2 2 3 3 3 3 4 4 4 4 4 4 4 5 5 5 5 4 4 4 4 4 4 4 5 5 4 4
1 0 1 1 1 2 2 3 3 3 3 3 3 3 3 3 2 2 3 3 2 2 3 4 3 3 5 5 4 5 5 4 4 4 4 4 4 4 4 4 4 4 4 4
1 1 1 2 2 2 2 3 3 2 2 2 3 3 3 3 3 3 2 2 2 3 3 3 3 3 6 6 5 4 4 4 4 4 4 3 4 4 4 4 4 4 3 4
1 1 2 2 3 2 2 2 2 2 2 3 3 3 3 3 3 2 1 0 1 2 2 2 3 5 7 4 4 3 3 3 3 3 3 3 3 4 3 3 3 3 3 4
1 2 2 2 2 2 2 2 2 2 2 2 2 2 2 2 2 2 1 1 1 2 2 2 4 6 5 3 3 3 2 2 2 2 2 3 3 3 3 3 3 3 3 3
2 2 2 2 3 3 2 2 2 2 2 2 2 3 3 2 1 1 2 2 2 2 3 3 2 4 3 3 3 3 3 2 2 3 3 3 3 3 3 3 3 3 3 3
2 2 1 2 2 3 3 2 2 2 2 2 2 3 3 3 2 2 2 1 1 2 2 2 2 2 3 3 3 3 3 2 2 2 2 2 2 2 3 3 3 3 3 3
Wind_Direction
250 248 232 228 226 225 234 248 258 257 257 260 265 237 149 153 151 143 145 152 157 162 160 166 168 172 175 177 174 173 176 187 184 191 194 196 197 203 209 217 221 221 230 234
238 239 236 237 234 229 233 241 249 257 254 249 107 130 153 157 155 157 158 159 160 164 165 169 171 172 173 179 176 176 182 190 192 196 199 201 204 209 212 216 224 224 231 238
238 230 236 235 229 229 230 240 250 252 242 170 164 146 154 154 158 159 157 157 159 166 176 177 177 174 175 179 178 178 180 184 187 195 203 208 210 209 212 217 221 228 239 241
242 226 237 233 199 226 228 232 242 248 226 199 188 139 137 139 141 136 136 139 152 165 167 171 174 172 176 179 182 182 185 193 200 206 209 209 211 213 218 223 225 229 235 237
240 235 236 217 205 217 221 221 236 222 199 183 154 157 137 82 78 91 101 111 138 160 153 152 167 168 173 185 185 189 193 202 208 214 215 212 214 218 223 226 233 238 236 237
236 246 244 213 168 217 232 221 182 182 178 178 184 213 126 72 66 82 88 100 112 125 130 143 156 168 185 194 195 202 207 212 217 221 224 225 224 223 225 229 236 243 242 238
234 241 241 157 204 207 228 206 132 156 171 191 195 333 96 104 86 87 94 102 113 126 137 137 153 175 204 213 218 218 216 218 221 224 227 227 225 224 226 234 242 247 247 244
231 237 228 107 187 217 172 117 168 167 183 177 128 97 112 117 106 95 102 104 107 117 122 142 171 192 218 231 236 228 227 226 224 227 233 227 225 229 228 234 237 240 240 244
242 238 78 82 109 39 123 161 172 182 175 141 131 124 127 128 117 88 78 76 95 130 147 167 216 222 235 244 238 233 234 235 236 237 236 231 227 231 232 231 242 247 247 250
224 193 118 58 32 315 295 119 133 142 142 142 137 131 133 125 119 90 55 22 82 129 162 228 248 252 253 257 243 240 237 239 241 243 244 237 239 238 240 243 246 251 254 257
219 203 191 123 356 346 14 73 119 143 148 149 138 134 124 136 128 109 76 16 177 188 214 245 231 240 263 256 240 240 241 244 248 250 249 247 246 254 250 257 268 264 264 258
234 203 253 240 307 322 352 8 13 112 124 119 119 111 77 43 31 325 39 115 154 168 161 351 313 310 300 272 244 244 248 255 259 255 246 250 252 258 255 238 213 236 263 269
269 258 281 276 307 341 21 16 10 30 88 100 82 70 58 80 22 307 63 89 102 99 73 319 301 310 313 290 251 248 254 260 264 265 258 254 255 255 256 235 210 216 227 242
171 146 154 95 37 37 50 57 75 72 72 73 72 60 40 68 73 70 52 50 99 98 314 302 302 308 310 303 272 260 257 253 259 262 260 259 258 254 250 255 253 251 229 215
170 175 177 107 63 69 80 99 95 68 57 52 50 67 82 64 74 41 334 313 208 237 269 285 293 296 300 300 283 274 272 263 261 265 264 264 263 260 257 258 261 262 262 231
166 163 168 135 56 11 65 47 20 19 21 12 4 28 27 15 228 260 283 272 260 272 291 293 291 296 299 292 283 278 278 267 263 269 266 264 261 259 262 262 264 266 265 267
183 188 194 198 322 316 333 347 338 332 335 331 327 340 320 303 266 286 291 287 284 282 278 277 281 287 282 276 276 278 279 264 242 257 261 264 266 268 268 265 267 273 271 259
180 194 224 245 293 314 326 331 326 316 298 291 280 253 241 238 256 285 293 296 286 280 281 277 278 280 277 278 279 279 275 268 262 266 270 268 271 272 272 269 266 269 272 253
165 174 200 239 316 325 328 330 332 326 296 257 255 249 239 237 247 259 268 274 278 279 286 290 279 277 279 280 275 258 265 266 266 267 265 255 259 269 271 270 270 271 274 283
150 146 119 12 328 325 319 315 317 313 292 269 255 251 254 260 261 264 273 278 286 297 295 302 293 292 285 282 275 269 267 267 268 268 263 258 261 265 269 275 279 282 283 281
135 119 63 354 341 333 319 308 299 289 280 273 266 262 264 271 271 266 266 279 305 318 310 292 282 288 289 299 266 270 268 268 270 269 266 264 267 271 277 281 283 286 284 282
116 94 13 352 339 331 319 306 296 287 283 281 276 268 266 269 278 284 283 292 303 324 304 297 300 334 322 297 277 274 275 276 277 276 274 274 275 275 278 285 291 294 293 292
71 31 348 323 318 315 308 301 297 291 286 285 278 271 270 275 274 273 280 301 306 313 304 311 332 318 294 279 277 272 274 274 274 275 274 275 276 276 278 285 291 296 301 300
7 336 319 311 307 299 299 305 316 312 295 283 278 276 272 273 277 282 297 333 306 298 308 326 286 279 274 269 274 274 270 268 269 270 270 272 275 278 281 286 289 290 293 293
338 322 301 293 289 293 289 285 287 284 293 304 303 295 291 297 295 310 305 278 239 254 282 267 248 264 268 284 284 281 275 279 283 275 261 267 277 281 282 284 291 294 298 298
293 295 310 307 311 305 300 295 295 303 309 318 323 327 333 339 327 303 276 257 259 255 264 269 269 259 275 289 289 289 284 270 257 254 264 270 273 273 275 284 287 292 298 298
279 285 287 300 314 313 307 306 314 319 322 328 328 330 330 325 320 319 316 308 287 276 280 278 277 280 284 286 291 292 281 276 273 271 271 273 279 278 281 281 284 284 280 284
Height
1463 1459 1461 1465 1466 1468 1470 1468 1471 1469 1467 1466 1468 1472 1476 1479 1481 1483 1485 1487 1489 1491 1493 1495 1496 1498 1499 1501 1502 1503 1504 1505 1506 1507 1508 1508 1509 1510 1510 1510 1511 1510 1510 1510
1466 1461 1461 1464 1463 1464 1465 1464 1465 1465 1467 1466 1470 1474 1477 1479 1481 1483 1485 1487 1489 1490 1492 1493 1494 1496 1497 1499 1500 1501 1501 1503 1504 1505 1505 1506 1507 1507 1508 1508 1508 1508 1508 1508
1467 1462 1464 1470 1462 1462 1463 1462 1463 1465 1465 1467 1471 1474 1477 1479 1481 1482 1484 1486 1487 1489 1490 1491 1492 1493 1495 1496 1498 1498 1499 1500 1501 1502 1503 1503 1504 1505 1505 1505 1505 1505 1505 1505
1465 1470 1483 1463 1458 1459 1461 1462 1462 1464 1466 1469 1472 1475 1478 1479 1480 1482 1484 1485 1486 1488 1489 1490 1491 1492 1493 1494 1495 1496 1497 1498 1499 1500 1500 1501 1501 1501 1502 1502 1502 1502 1502 1502
1466 1469 1467 1462 1459 1460 1462 1465 1465 1465 1467 1470 1472 1475 1477 1480 1481 1483 1484 1485 1486 1487 1488 1489 1490 1490 1490 1491 1492 1493 1494 1495 1496 1497 1497 1497 1498 1498 1498 1499 1499 1499 1499 1499
1467 1473 1473 1459 1458 1462 1464 1467 1466 1467 1469 1470 1471 1470 1475 1480 1481 1482 1483 1484 1485 1486 1486 1487 1488 1489 1489 1489 1490 1490 1491 1492 1493 1493 1494 1494 1494 1495 1495 1496 1496 1495 1495 1495
1465 1467 1459 1458 1460 1463 1470 1468 1467 1468 1470 1471 1472 1473 1477 1479 1480 1481 1482 1483 1484 1485 1485 1486 1486 1486 1487 1487 1488 1488 1489 1489 1489 1490 1490 1490 1491 1491 1491 1492 1492 1492 1492 1491
1462 1466 1464 1460 1460 1462 1465 1467 1467 1469 1470 1472 1474 1475 1477 1478 1479 1480 1481 1482 1483 1483 1483 1483 1484 1484 1485 1485 1485 1485 1486 1486 1486 1486 1487 1487 1487 1487 1487 1488 1488 1488 1488 1488
1457 1461 1463 1464 1464 1466 1467 1467 1468 1469 1470 1472 1473 1475 1476 1477 1479 1480 1480 1481 1481 1481 1481 1482 1482 1482 1483 1483 1483 1483 1483 1483 1483 1483 1483 1483 1483 1484 1484 1484 1485 1485 1485 1485
1461 1460 1463 1465 1466 1468 1468 1468 1468 1469 1470 1472 1473 1474 1476 1476 1477 1478 1479 1480 1479 1479 1480 1480 1480 1480 1480 1480 1480 1480 1480 1480 1481 1481 1480 1480 1480 1481 1481 1481 1481 1481 1481 1481
1461 1463 1465 1466 1468 1468 1469 1468 1469 1469 1470 1471 1472 1474 1475 1475 1476 1477 1477 1477 1477 1477 1478 1478 1477 1477 1477 1477 1477 1477 1477 1478 1478 1478 1477 1476 1477 1477 1477 1477 1477 1477 1477 1477
1459 1464 1465 1467 1468 1469 1468 1468 1469 1469 1470 1471 1472 1473 1473 1474 1475 1475 1475 1475 1475 1476 1476 1476 1475 1475 1475 1475 1475 1475 1475 1475 1475 1475 1474 1474 1474 1473 1472 1473 1472 1472 1472 1473
1463 1464 1466 1467 1468 1468 1468 1468 1468 1469 1469 1470 1471 1472 1472 1472 1473 1473 1473 1473 1473 1473 1473 1473 1473 1473 1473 1472 1472 1472 1472 1472 1472 1472 1472 1471 1470 1470 1470 1469 1469 1469 1468 1468
1465 1466 1466 1467 1467 1468 1467 1467 1468 1468 1469 1469 1470 1470 1471 1471 1471 1471 1472 1472 1472 1471 1471 1472 1471 1471 1470 1470 1470 1469 1469 1469 1469 1469 1468 1468 1467 1467 1466 1466 1466 1465 1465 1464
1465 1466 1466 1467 1467 1467 1467 1467 1467 1467 1468 1468 1469 1469 1469 1469 1469 1470 1470 1470 1470 1470 1470 1469 1469 1468 1468 1467 1467 1467 1466 1466 1465 1465 1465 1464 1464 1463 1463 1463 1462 1462 1461 1461
1464 1466 1466 1467 1467 1467 1467 1467 1467 1467 1467 1467 1468 1468 1468 1468 1468 1468 1468 1468 1468 1468 1467 1467 1466 1466 1465 1465 1464 1464 1464 1463 1462 1462 1461 1461 1461 1460 1460 1459 1459 1459 1458 1457
1464 1465 1465 1466 1466 1466 1466 1466 1466 1466 1467 1467 1467 1466 1466 1466 1466 1466 1466 1466 1466 1465 1464 1464 1463 1463 1462 1462 1462 1461 1461 1460 1458 1458 1458 1458 1457 1457 1456 1456 1456 1455 1455 1454
1464 1465 1465 1466 1466 1465 1465 1465 1465 1465 1465 1465 1465 1465 1464 1464 1464 1464 1464 1464 1463 1463 1462 1462 1461 1460 1459 1459 1458 1458 1458 1457 1456 1455 1455 1454 1454 1454 1453 1453 1452 1452 1451 1450
1463 1464 1465 1465 1465 1464 1464 1464 1464 1464 1464 1463 1463 1463 1462 1462 1462 1461 1461 1461 1460 1460 1460 1459 1458 1457 1457 1456 1455 1455 1455 1454 1453 1453 1452 1451 1451 1451 1450 1450 1449 1449 1448 1447
1462 1463 1463 1463 1463 1463 1463 1463 1463 1462 1462 1462 1461 1461 1460 1460 1460 1459 1458 1458 1458 1458 1457 1456 1455 1454 1454 1453 1452 1452 1452 1451 1450 1450 1449 1449 1448 1448 1447 1447 1446 1446 1445 1444
1462 1462 1462 1462 1462 1462 1462 1462 1461 1461 1460 1460 1459 1458 1458 1458 1457 1457 1456 1456 1455 1455 1454 1453 1452 1452 1451 1450 1449 1449 1449 1448 1447 1447 1446 1445 1445 1444 1444 1443 1443 1442 1441 1441
1460 1461 1461 1461 1460 1460 1460 1460 1459 1459 1458 1457 1457 1456 1456 1455 1455 1454 1454 1453 1453 1452 1451 1451 1450 1449 1448 1447 1446 1446 1446 1445 1444 1443 1443 1442 1442 1441 1441 1440 1439 1438 1438 1437
1459 1460 1460 1460 1459 1459 1459 1458 1457 1456 1456 1455 1455 1454 1454 1453 1452 1452 1451 1451 1450 1449 1448 1448 1447 1446 1445 1444 1444 1443 1442 1442 1441 1440 1440 1439 1439 1438 1438 1437 1436 1436 1435 1435
1458 1459 1459 1458 1458 1458 1457 1456 1456 1455 1454 1453 1453 1452 1451 1450 1450 1449 1448 1447 1447 1446 1446 1445 1444 1443 1442 1442 1441 1440 1440 1439 1438 1438 1437 1437 1436 1436 1435 1434 1434 1433 1433 1432
1457 1458 1458 1457 1457 1456 1455 1454 1453 1453 1452 1451 1450 1450 1449 1448 1447 1446 1446 1445 1444 1444 1444 1443 1442 1441 1441 1440 1439 1438 1437 1436 1436 1435 1435 1435 1434 1433 1433 1432 1431 1431 1430 1430
1456 1456 1456 1455 1455 1454 1453 1452 1452 1451 1450 1449 1449 1448 1447 1446 1445 1444 1443 1443 1442 1442 1442 1441 1441 1440 1439 1438 1437 1436 1435 1434 1433 1433 1432 1432 1431 1431 1430 1430 1429 1429 1428 1427
1455 1454 1454 1453 1453 1452 1451 1451 1450 1449 1448 1448 1447 1446 1446 1445 1444 1443 1442 1442 1441 1441 1440 1440 1439 1438 1437 1436 1435 1434 1433 1432 1431 1431 1430 1429 1429 1428 1428 1427 1427 1426 1426 1425